| time (UTC) | temp F | wind direction | speed knots | gust knots | rain 1hr in | rain 24hr in | rain mn in | humidity % | barometer mb |
| 20260503040047 | 64 | 0 | 0.0 | 0.0 | 0.00 | 0.02 | 0.02 | 77 | 1012.9 |
| 20260503034545 | 65 | 0 | 0.0 | 0.0 | 0.00 | 0.02 | 0.02 | 76 | 1013.0 |
| 20260503033042 | 65 | 0 | 0.0 | 1.7 | 0.00 | 0.02 | 0.02 | 74 | 1012.8 |
| 20260503031553 | 65 | 109 | 0.9 | 5.2 | 0.00 | 0.02 | 0.02 | 73 | 1012.7 |
| 20260503030050 | 66 | 109 | 0.9 | 4.3 | 0.00 | 0.02 | 0.02 | 71 | 1012.6 |
| 20260503024538 | 68 | 192 | 0.9 | 9.6 | 0.00 | 0.02 | 0.02 | 69 | 1012.5 |
| 20260503023038 | 69 | 200 | 4.3 | 9.6 | 0.00 | 0.02 | 0.02 | 66 | 1012.4 |
| 20260503021548 | 69 | 201 | 1.7 | 7.0 | 0.00 | 0.02 | 0.02 | 66 | 1012.2 |
| 20260503020051 | 69 | 275 | 0.0 | 2.6 | 0.00 | 0.02 | 0.02 | 68 | 1011.7 |
| 20260503014546 | 70 | 0 | 0.0 | 1.7 | 0.00 | 0.02 | 0.02 | 66 | 1011.4 |
| 20260503013040 | 71 | 0 | 0.0 | 1.7 | 0.00 | 0.02 | 0.02 | 64 | 1011.3 |
| 20260503011553 | 72 | 275 | 0.0 | 0.9 | 0.00 | 0.02 | 0.02 | 62 | 1011.3 |
| 20260503010044 | 72 | 0 | 0.0 | 2.6 | 0.00 | 0.02 | 0.02 | 58 | 1011.3 |
| 20260503004542 | 73 | 0 | 0.0 | 3.5 | 0.00 | 0.02 | 0.02 | 59 | 1011.4 |
| 20260503003041 | 73 | 0 | 0.0 | 5.2 | 0.00 | 0.02 | 0.02 | 57 | 1011.4 |
| 20260503001544 | 74 | 275 | 0.9 | 5.2 | 0.00 | 0.02 | 0.02 | 57 | 1011.3 |
| 20260503000059 | 73 | 327 | 1.7 | 5.2 | 0.00 | 0.02 | 0.02 | 55 | 1011.4 |
| 20260502234546 | 73 | 0 | 2.6 | 7.0 | 0.00 | 0.02 | 0.02 | 58 | 1011.5 |
| 20260502233042 | 73 | 292 | 1.7 | 7.0 | 0.00 | 0.02 | 0.02 | 59 | 1011.5 |
| 20260502231612 | 72 | 281 | 0.9 | 7.0 | 0.00 | 0.02 | 0.02 | 58 | 1011.8 |
| 20260502230042 | 72 | 271 | 3.5 | 7.8 | 0.00 | 0.02 | 0.02 | 59 | 1011.9 |
| 20260502224555 | 71 | 0 | 0.0 | 6.1 | 0.00 | 0.02 | 0.02 | 63 | 1012.3 |
| 20260502223047 | 70 | 0 | 2.6 | 7.0 | 0.00 | 0.02 | 0.02 | 64 | 1012.6 |
| 20260502221549 | 69 | 0 | 0.0 | 4.3 | 0.00 | 0.02 | 0.02 | 63 | 1012.8 |
| 20260502220048 | 69 | 0 | 0.0 | 2.6 | 0.00 | 0.02 | 0.02 | 63 | 1013.1 |
| 20260502214550 | 68 | 0 | 0.0 | 3.5 | 0.00 | 0.02 | 0.02 | 63 | 1013.3 |
| 20260502213050 | 68 | 0 | 0.9 | 3.5 | 0.00 | 0.02 | 0.02 | 63 | 1013.6 |
| 20260502211549 | 68 | 0 | 0.0 | 2.6 | 0.00 | 0.02 | 0.02 | 65 | 1013.7 |
| 20260502210046 | 67 | 273 | 1.7 | 7.0 | 0.00 | 0.02 | 0.02 | 65 | 1013.9 |
| 20260502204548 | 66 | 284 | 0.9 | 6.1 | 0.00 | 0.02 | 0.02 | 67 | 1014.1 |
| 20260502203048 | 65 | 0 | 0.9 | 4.3 | 0.00 | 0.02 | 0.02 | 68 | 1014.5 |
| 20260502201543 | 65 | 0 | 0.9 | 7.8 | 0.00 | 0.02 | 0.02 | 71 | 1014.7 |
| 20260502200049 | 64 | 298 | 0.9 | 6.1 | 0.00 | 0.02 | 0.02 | 69 | 1014.8 |
| 20260502194552 | 62 | 268 | 1.7 | 6.1 | 0.00 | 0.02 | 0.02 | 75 | 1015.0 |
| 20260502193057 | 60 | 259 | 2.6 | 6.1 | 0.00 | 0.02 | 0.02 | 74 | 1015.1 |
| 20260502191550 | 59 | 261 | 1.7 | 7.8 | 0.00 | 0.02 | 0.02 | 80 | 1015.4 |
| 20260502190044 | 58 | 274 | 0.9 | 7.0 | 0.00 | 0.02 | 0.02 | 83 | 1015.5 |
| 20260502184543 | 57 | 0 | 0.0 | 3.5 | 0.00 | 0.02 | 0.02 | 84 | 1015.1 |
| 20260502183046 | 56 | 0 | 0.0 | 4.3 | 0.00 | 0.02 | 0.02 | 84 | 1015.4 |
| 20260502181548 | 56 | 334 | 0.0 | 2.6 | 0.00 | 0.02 | 0.02 | 86 | 1015.6 |
| 20260502163048 | 52 | 0 | 0.0 | 0.0 | 0.00 | 0.02 | 0.02 | 92 | 1016.2 |
| 20260502161603 | 52 | 0 | 0.0 | 0.0 | 0.00 | 0.02 | 0.02 | 92 | 1016.2 |
| 20260502151544 | 52 | 0 | 0.0 | 0.0 | 0.00 | 0.02 | 0.02 | 92 | 1016.5 |
| 20260502130104 | 51 | 269 | 0.0 | 2.6 | 0.00 | 0.02 | 0.02 | 92 | 1016.2 |
| 20260502123111 | 51 | 269 | 0.0 | 0.0 | 0.00 | 0.02 | 0.02 | 92 | 1016.2 |
| 20260502121548 | 50 | 269 | 0.9 | 5.2 | 0.00 | 0.02 | 0.02 | 92 | 1016.2 |
| 20260502114556 | 51 | 265 | 1.7 | 5.2 | 0.00 | 0.02 | 0.02 | 92 | 1016.2 |
| 20260502113046 | 51 | 0 | 0.0 | 5.2 | 0.00 | 0.02 | 0.02 | 92 | 1015.9 |
| 20260502111545 | 51 | 284 | 1.7 | 5.2 | 0.00 | 0.02 | 0.02 | 92 | 1015.9 |
| 20260502110051 | 51 | 284 | 0.9 | 4.3 | 0.00 | 0.02 | 0.02 | 92 | 1016.1 |
| 20260502104547 | 51 | 254 | 1.7 | 5.2 | 0.00 | 0.02 | 0.02 | 92 | 1016.0 |
| 20260502103048 | 51 | 0 | 0.0 | 0.0 | 0.00 | 0.02 | 0.02 | 92 | 1016.1 |
| 20260502101555 | 51 | 0 | 0.9 | 4.3 | 0.00 | 0.02 | 0.02 | 92 | 1015.7 |
| 20260502070041 | 54 | 292 | 2.6 | 7.8 | 0.00 | 0.00 | 0.00 | 79 | 1017.0 |
| 20260502064547 | 55 | 306 | 0.9 | 7.0 | 0.00 | 0.00 | 0.00 | 78 | 1016.9 |
| 20260502063055 | 56 | 319 | 1.7 | 6.1 | 0.00 | 0.00 | 0.00 | 77 | 1016.9 |
| 20260502061544 | 56 | 324 | 2.6 | 5.2 | 0.00 | 0.00 | 0.00 | 76 | 1017.1 |
| 20260502060045 | 57 | 324 | 1.7 | 4.3 | 0.00 | 0.00 | 0.00 | 75 | 1016.8 |
| 20260502054542 | 57 | 318 | 0.9 | 5.2 | 0.00 | 0.00 | 0.00 | 74 | 1016.6 |
| 20260502053048 | 58 | 321 | 0.9 | 7.8 | 0.00 | 0.00 | 0.00 | 73 | 1017.0 |
| 20260502051544 | 58 | 340 | 1.7 | 9.6 | 0.00 | 0.00 | 0.00 | 72 | 1016.5 |
| 20260502050047 | 59 | 306 | 6.1 | 12.2 | 0.00 | 0.00 | 0.00 | 71 | 1016.4 |
| 20260502044548 | 60 | 328 | 4.3 | 13.9 | 0.00 | 0.00 | 0.00 | 70 | 1016.1 |
| 20260502043046 | 61 | 325 | 1.7 | 10.4 | 0.00 | 0.00 | 0.00 | 69 | 1016.2 |
| 20260502041547 | 62 | 287 | 4.3 | 11.3 | 0.00 | 0.00 | 0.00 | 68 | 1015.8 |